Year,Month,Day,Hour,Minute,Value (Times are PST for temperature in C)
2017,02,22,00,00,0.10
2017,02,22,00,01,0.10
2017,02,22,00,02,0.10
2017,02,22,00,03,0.10
2017,02,22,00,04,0.10
2017,02,22,00,05,0.10
2017,02,22,00,06,0.10
2017,02,22,00,07,0.00
2017,02,22,00,08,0.10
2017,02,22,00,09,0.10
2017,02,22,00,10,0.00
2017,02,22,00,11,0.00
2017,02,22,00,12,0.00
2017,02,22,00,13,0.00
2017,02,22,00,14,-0.10
2017,02,22,00,15,-0.10
2017,02,22,00,16,-0.10
2017,02,22,00,17,-0.20
2017,02,22,00,18,-0.20
2017,02,22,00,19,-0.20
2017,02,22,00,20,-0.20
2017,02,22,00,21,-0.20
2017,02,22,00,22,-0.20
2017,02,22,00,23,-0.20
2017,02,22,00,24,-0.20
2017,02,22,00,25,-0.20
2017,02,22,00,26,-0.20
2017,02,22,00,27,-0.30
2017,02,22,00,28,-0.30
2017,02,22,00,29,-0.30
2017,02,22,00,30,-0.30
2017,02,22,00,31,-0.30
2017,02,22,00,32,-0.20
2017,02,22,00,33,-0.20
2017,02,22,00,34,-0.20
2017,02,22,00,35,-0.20
2017,02,22,00,36,-0.20
2017,02,22,00,37,-0.20
2017,02,22,00,38,-0.20
2017,02,22,00,39,-0.20
2017,02,22,00,40,-0.20
2017,02,22,00,41,-0.20
2017,02,22,00,42,-0.20
2017,02,22,00,43,-0.20
2017,02,22,00,44,-0.20
2017,02,22,00,45,-0.20
2017,02,22,00,46,-0.20
2017,02,22,00,47,-0.20
2017,02,22,00,48,-0.30
2017,02,22,00,49,-0.30
2017,02,22,00,50,-0.30
2017,02,22,00,51,-0.30
2017,02,22,00,52,-0.30
2017,02,22,00,53,-0.30
2017,02,22,00,54,-0.30
2017,02,22,00,55,-0.30
2017,02,22,00,56,-0.30
2017,02,22,00,57,-0.30
2017,02,22,00,58,-0.30
2017,02,22,00,59,-0.30
2017,02,22,01,00,-0.30
2017,02,22,01,01,-0.20
2017,02,22,01,02,-0.20
2017,02,22,01,03,-0.20
2017,02,22,01,04,-0.20
2017,02,22,01,05,-0.10
2017,02,22,01,06,-0.10
2017,02,22,01,07,-0.10
2017,02,22,01,08,-0.10
2017,02,22,01,09,-0.10
2017,02,22,01,10,-0.10
2017,02,22,01,11,-0.10
2017,02,22,01,12,-0.20
2017,02,22,01,13,-0.20
2017,02,22,01,14,-0.20
2017,02,22,01,15,-0.20
2017,02,22,01,16,-0.20
2017,02,22,01,17,-0.20
2017,02,22,01,18,-0.20
2017,02,22,01,19,-0.20
2017,02,22,01,20,-0.20
2017,02,22,01,21,-0.20
2017,02,22,01,22,-0.30
2017,02,22,01,23,-0.30
2017,02,22,01,24,-0.30
2017,02,22,01,25,-0.40
2017,02,22,01,26,-0.40
2017,02,22,01,27,-0.40
2017,02,22,01,28,-0.40
2017,02,22,01,29,-0.40
2017,02,22,01,30,-0.50
2017,02,22,01,31,-0.50
2017,02,22,01,32,-0.50
2017,02,22,01,33,-0.50
2017,02,22,01,34,-0.50
2017,02,22,01,35,-0.50
2017,02,22,01,36,-0.50
2017,02,22,01,37,-0.60
2017,02,22,01,38,-0.60
2017,02,22,01,39,-0.60
2017,02,22,01,40,-0.60
2017,02,22,01,41,-0.60
2017,02,22,01,42,-0.50
2017,02,22,01,43,-0.50
2017,02,22,01,44,-0.50
2017,02,22,01,45,-0.50
2017,02,22,01,46,-0.50
2017,02,22,01,47,-0.50
2017,02,22,01,48,-0.50
2017,02,22,01,49,-0.50
2017,02,22,01,50,-0.50
2017,02,22,01,51,-0.50
2017,02,22,01,52,-0.50
2017,02,22,01,53,-0.50
2017,02,22,01,54,-0.40
2017,02,22,01,55,-0.40
2017,02,22,01,56,-0.40
2017,02,22,01,57,-0.40
2017,02,22,01,58,-0.40
2017,02,22,01,59,-0.40
2017,02,22,02,00,-0.30
2017,02,22,02,01,-0.30
2017,02,22,02,02,-0.30
2017,02,22,02,03,-0.30
2017,02,22,02,04,-0.30
2017,02,22,02,05,-0.40
2017,02,22,02,06,-0.40
2017,02,22,02,07,-0.40
2017,02,22,02,08,-0.40
2017,02,22,02,09,-0.40
2017,02,22,02,10,-0.40
2017,02,22,02,11,-0.40
2017,02,22,02,12,-0.40
2017,02,22,02,13,-0.40
2017,02,22,02,14,-0.40
2017,02,22,02,15,-0.40
2017,02,22,02,16,-0.40
2017,02,22,02,17,-0.40
2017,02,22,02,18,-0.40
2017,02,22,02,19,-0.40
2017,02,22,02,20,-0.40
2017,02,22,02,21,-0.40
2017,02,22,02,22,-0.40
2017,02,22,02,23,-0.40
2017,02,22,02,24,-0.40
2017,02,22,02,25,-0.50
2017,02,22,02,26,-0.50
2017,02,22,02,27,-0.50
2017,02,22,02,28,-0.60
2017,02,22,02,29,-0.60
2017,02,22,02,30,-0.60
2017,02,22,02,31,-0.60
2017,02,22,02,32,-0.60
2017,02,22,02,33,-0.60
2017,02,22,02,34,-0.60
2017,02,22,02,35,-0.60
2017,02,22,02,36,-0.60
2017,02,22,02,37,-0.60
2017,02,22,02,38,-0.60
2017,02,22,02,39,-0.60
2017,02,22,02,40,-0.50
2017,02,22,02,41,-0.50
2017,02,22,02,42,-0.50
2017,02,22,02,43,-0.50
2017,02,22,02,44,-0.40
2017,02,22,02,45,-0.50
2017,02,22,02,46,-0.50
2017,02,22,02,47,-0.50
2017,02,22,02,48,-0.50
2017,02,22,02,49,-0.50
2017,02,22,02,50,-0.60
2017,02,22,02,51,-0.60
2017,02,22,02,52,-0.60
2017,02,22,02,53,-0.60
2017,02,22,02,54,-0.60
2017,02,22,02,55,-0.60
2017,02,22,02,56,-0.60
2017,02,22,02,57,-0.60
2017,02,22,02,58,-0.60
2017,02,22,02,59,-0.70
2017,02,22,03,00,-0.70
2017,02,22,03,01,-0.70
2017,02,22,03,02,-0.70
2017,02,22,03,03,-0.70
2017,02,22,03,04,-0.70
2017,02,22,03,05,-0.70
2017,02,22,03,06,-0.70
2017,02,22,03,07,-0.70
2017,02,22,03,08,-0.70
2017,02,22,03,09,-0.70
2017,02,22,03,10,-0.70
2017,02,22,03,11,-0.70
2017,02,22,03,12,-0.70
2017,02,22,03,13,-0.70
2017,02,22,03,14,-0.70
2017,02,22,03,15,-0.70
2017,02,22,03,16,-0.70
2017,02,22,03,17,-0.70
2017,02,22,03,18,-0.60
2017,02,22,03,19,-0.60
2017,02,22,03,20,-0.50
2017,02,22,03,21,-0.50
2017,02,22,03,22,-0.50
2017,02,22,03,23,-0.50
2017,02,22,03,24,-0.50
2017,02,22,03,25,-0.60
2017,02,22,03,26,-0.60
2017,02,22,03,27,-0.60
2017,02,22,03,28,-0.60
2017,02,22,03,29,-0.60
2017,02,22,03,30,-0.60
2017,02,22,03,31,-0.60
2017,02,22,03,32,-0.60
2017,02,22,03,33,-0.60
2017,02,22,03,34,-0.60
2017,02,22,03,35,-0.60
2017,02,22,03,36,-0.60
2017,02,22,03,37,-0.60
2017,02,22,03,38,-0.60
2017,02,22,03,39,-0.50
2017,02,22,03,40,-0.50
2017,02,22,03,41,-0.50
2017,02,22,03,42,-0.50
2017,02,22,03,43,-0.50
2017,02,22,03,44,-0.50
2017,02,22,03,45,-0.50
2017,02,22,03,46,-0.50
2017,02,22,03,47,-0.50
2017,02,22,03,48,-0.50
2017,02,22,03,49,-0.50
2017,02,22,03,50,-0.50
2017,02,22,03,51,-0.50
2017,02,22,03,52,-0.50
2017,02,22,03,53,-0.50
2017,02,22,03,54,-0.50
2017,02,22,03,55,-0.50
2017,02,22,03,56,-0.50
2017,02,22,03,57,-0.50
2017,02,22,03,58,-0.50
2017,02,22,03,59,-0.50
2017,02,22,04,00,-0.50
2017,02,22,04,01,-0.60
2017,02,22,04,02,-0.60
2017,02,22,04,03,-0.60
2017,02,22,04,04,-0.60
2017,02,22,04,05,-0.60
2017,02,22,04,06,-0.70
2017,02,22,04,07,-0.70
2017,02,22,04,08,-0.60
2017,02,22,04,09,-0.60
2017,02,22,04,10,-0.60
2017,02,22,04,11,-0.60
2017,02,22,04,12,-0.60
2017,02,22,04,13,-0.50
2017,02,22,04,14,-0.50
2017,02,22,04,15,-0.50
2017,02,22,04,16,-0.50
2017,02,22,04,17,-0.50
2017,02,22,04,18,-0.50
2017,02,22,04,19,-0.50
2017,02,22,04,20,-0.50
2017,02,22,04,21,-0.60
2017,02,22,04,22,-0.60
2017,02,22,04,23,-0.60
2017,02,22,04,24,-0.50
2017,02,22,04,25,-0.50
2017,02,22,04,26,-0.50
2017,02,22,04,27,-0.50
2017,02,22,04,28,-0.50
2017,02,22,04,29,-0.50
2017,02,22,04,30,-0.50
2017,02,22,04,31,-0.50
2017,02,22,04,32,-0.40
2017,02,22,04,33,-0.50
2017,02,22,04,34,-0.50
2017,02,22,04,35,-0.50
2017,02,22,04,36,-0.60
2017,02,22,04,37,-0.60
2017,02,22,04,38,-0.70
2017,02,22,04,39,-0.70
2017,02,22,04,40,-0.70
2017,02,22,04,41,-0.80
2017,02,22,04,42,-0.70
2017,02,22,04,43,-0.70
2017,02,22,04,44,-0.70
2017,02,22,04,45,-0.70
2017,02,22,04,46,-0.70
2017,02,22,04,47,-0.70
2017,02,22,04,48,-0.70
2017,02,22,04,49,-0.70
2017,02,22,04,50,-0.70
2017,02,22,04,51,-0.70
2017,02,22,04,52,-0.70
2017,02,22,04,53,-0.70
2017,02,22,04,54,-0.70
2017,02,22,04,55,-0.60
2017,02,22,04,56,-0.60
2017,02,22,04,57,-0.60
2017,02,22,04,58,-0.60
2017,02,22,04,59,-0.50
2017,02,22,05,00,-0.50
2017,02,22,05,01,-0.50
2017,02,22,05,02,-0.50
2017,02,22,05,03,-0.50
2017,02,22,05,04,-0.50
2017,02,22,05,05,-0.50
2017,02,22,05,06,-0.50
2017,02,22,05,07,-0.50
2017,02,22,05,08,-0.50
2017,02,22,05,09,-0.50
2017,02,22,05,10,-0.50
2017,02,22,05,11,-0.50
2017,02,22,05,12,-0.50
2017,02,22,05,13,-0.50
2017,02,22,05,14,-0.60
2017,02,22,05,15,-0.60
2017,02,22,05,16,-0.60
2017,02,22,05,17,-0.60
2017,02,22,05,18,-0.60
2017,02,22,05,19,-0.60
2017,02,22,05,20,-0.60
2017,02,22,05,21,-0.70
2017,02,22,05,22,-0.70
2017,02,22,05,23,-0.70
2017,02,22,05,24,-0.70
2017,02,22,05,25,-0.70
2017,02,22,05,26,-0.70
2017,02,22,05,27,-0.70
2017,02,22,05,28,-0.70
2017,02,22,05,29,-0.70
2017,02,22,05,30,-0.70
2017,02,22,05,31,-0.70
2017,02,22,05,32,-0.70
2017,02,22,05,33,-0.70
2017,02,22,05,34,-0.70
2017,02,22,05,35,-0.70
2017,02,22,05,36,-0.70
2017,02,22,05,37,-0.70
2017,02,22,05,38,-0.70
2017,02,22,05,39,-0.70
2017,02,22,05,40,-0.70
2017,02,22,05,41,-0.70
2017,02,22,05,42,-0.70
2017,02,22,05,43,-0.70
2017,02,22,05,44,-0.70
2017,02,22,05,45,-0.70
2017,02,22,05,46,-0.70
2017,02,22,05,47,-0.70
2017,02,22,05,48,-0.70
2017,02,22,05,49,-0.70
2017,02,22,05,50,-0.70
2017,02,22,05,51,-0.70
2017,02,22,05,52,-0.70
2017,02,22,05,53,-0.70
2017,02,22,05,54,-0.70
2017,02,22,05,55,-0.70
2017,02,22,05,56,-0.70
2017,02,22,05,57,-0.70
2017,02,22,05,58,-0.70
2017,02,22,05,59,-0.70
2017,02,22,06,00,-0.70
2017,02,22,06,01,-0.70
2017,02,22,06,02,-0.70
2017,02,22,06,03,-0.70
2017,02,22,06,04,-0.80
2017,02,22,06,05,-0.70
2017,02,22,06,06,-0.70
2017,02,22,06,07,-0.70
2017,02,22,06,08,-0.70
2017,02,22,06,09,-0.70
2017,02,22,06,10,-0.70
2017,02,22,06,11,-0.70
2017,02,22,06,12,-0.80
2017,02,22,06,13,-0.80
2017,02,22,06,14,-0.80
2017,02,22,06,15,-0.80
2017,02,22,06,16,-0.80
2017,02,22,06,17,-0.90
2017,02,22,06,18,-0.90
2017,02,22,06,19,-0.90
2017,02,22,06,20,-0.90
2017,02,22,06,21,-0.90
2017,02,22,06,22,-0.90
2017,02,22,06,23,-0.90
2017,02,22,06,24,-0.90
2017,02,22,06,25,-0.90
2017,02,22,06,26,-0.90
2017,02,22,06,27,-1.00
2017,02,22,06,28,-1.00
2017,02,22,06,29,-1.00
2017,02,22,06,30,-1.00
2017,02,22,06,31,-1.10
2017,02,22,06,32,-1.10
2017,02,22,06,33,-1.10
2017,02,22,06,34,-1.10
2017,02,22,06,35,-1.10
2017,02,22,06,36,-1.10
2017,02,22,06,37,-1.10
2017,02,22,06,38,-1.20
2017,02,22,06,39,-1.20
2017,02,22,06,40,-1.20
2017,02,22,06,41,-1.20
2017,02,22,06,42,-1.20
2017,02,22,06,43,-1.20
2017,02,22,06,44,-1.20
2017,02,22,06,45,-1.20
2017,02,22,06,46,-1.20
2017,02,22,06,47,-1.20
2017,02,22,06,48,-1.20
2017,02,22,06,49,-1.20
2017,02,22,06,50,-1.20
2017,02,22,06,51,-1.20
2017,02,22,06,52,-1.20
2017,02,22,06,53,-1.20
2017,02,22,06,54,-1.20
2017,02,22,06,55,-1.20
2017,02,22,06,56,-1.20
2017,02,22,06,57,-1.20
2017,02,22,06,58,-1.20
2017,02,22,06,59,-1.20
2017,02,22,07,00,-1.10
2017,02,22,07,01,-1.10
2017,02,22,07,02,-1.10
2017,02,22,07,03,-1.20
2017,02,22,07,04,-1.20
2017,02,22,07,05,-1.20
2017,02,22,07,06,-1.20
2017,02,22,07,07,-1.30
2017,02,22,07,08,-1.30
2017,02,22,07,09,-1.30
2017,02,22,07,10,-1.30
2017,02,22,07,11,-1.30
2017,02,22,07,12,-1.30
2017,02,22,07,13,-1.30
2017,02,22,07,14,-1.30
2017,02,22,07,15,-1.30
2017,02,22,07,16,-1.30
2017,02,22,07,17,-1.30
2017,02,22,07,18,-1.30
2017,02,22,07,19,-1.30
2017,02,22,07,20,-1.30
2017,02,22,07,21,-1.30
2017,02,22,07,22,-1.30
2017,02,22,07,23,-1.30
2017,02,22,07,24,-1.30
2017,02,22,07,25,-1.30
2017,02,22,07,26,-1.30
2017,02,22,07,27,-1.30
2017,02,22,07,28,-1.30
2017,02,22,07,29,-1.40
2017,02,22,07,30,-1.40
2017,02,22,07,31,-1.40
2017,02,22,07,32,-1.50
2017,02,22,07,33,-1.50
2017,02,22,07,34,-1.60
2017,02,22,07,35,-1.60
2017,02,22,07,36,-1.60
2017,02,22,07,37,-1.60
2017,02,22,07,38,-1.50
2017,02,22,07,39,-1.50
2017,02,22,07,40,-1.50
2017,02,22,07,41,-1.50
2017,02,22,07,42,-1.50
2017,02,22,07,43,-1.50
2017,02,22,07,44,-1.40
2017,02,22,07,45,-1.40
2017,02,22,07,46,-1.40
2017,02,22,07,47,-1.40
2017,02,22,07,48,-1.40
2017,02,22,07,49,-1.40
2017,02,22,07,50,-1.40
2017,02,22,07,51,-1.40
2017,02,22,07,52,-1.40
2017,02,22,07,53,-1.40
2017,02,22,07,54,-1.40
2017,02,22,07,55,-1.40
2017,02,22,07,56,-1.40
2017,02,22,07,57,-1.40
2017,02,22,07,58,-1.40
2017,02,22,07,59,-1.40
2017,02,22,08,00,-1.40
2017,02,22,08,01,-1.40
2017,02,22,08,02,-1.40
2017,02,22,08,03,-1.40
2017,02,22,08,04,-1.40
2017,02,22,08,05,-1.40
2017,02,22,08,06,-1.40
2017,02,22,08,07,-1.40
2017,02,22,08,08,-1.40
2017,02,22,08,09,-1.50
2017,02,22,08,10,-1.50
2017,02,22,08,11,-1.50
2017,02,22,08,12,-1.50
2017,02,22,08,13,-1.50
2017,02,22,08,14,-1.50
2017,02,22,08,15,-1.50
2017,02,22,08,16,-1.40
2017,02,22,08,17,-1.40
2017,02,22,08,18,-1.40
2017,02,22,08,19,-1.40
2017,02,22,08,20,-1.40
